Wichita, KS

5:43 PM CDT on September 25, 2016 (GMT -0500)
Col Jabara

Weather History for KAAO - November, 2013

Change the Weather History Date:

Monday, November 11, 2013

  Actual Average (KICT) Record (KICT)
Temperature  
Mean Temperature 44 °F 48 °F  
Max Temperature 57 °F 59 °F 80 °F (1956)
Min Temperature 28 °F 37 °F 10 °F (1911)
Degree Days  
Heating Degree Days 20 17  
Month to date heating degree days 165  
Since 1 July heating degree days 451  
Cooling Degree Days 0 0  
Month to date cooling degree days 0  
Year to date cooling degree days 1684  
Moisture  
Dew Point 44 °F    
Average Humidity 84    
Maximum Humidity 100    
Minimum Humidity 58    
Precipitation  
Precipitation 0.00 in 0.05 in 3.68 in (1922)
Month to date precipitation 0.62  
Year to date precipitation 30.63  
Snow  
Snow 0.00 in 0.00 in 0.20 in (1904)
Month to date snowfall 0.1  
Since 1 July snowfall 0.2  
Since 1 September snowfall 0.2  
Snow Depth -    
Sea Level Pressure  
Sea Level Pressure 30.28 in    
Wind  
Wind Speed 10 mph (WNW)    
Max Wind Speed 25 mph    
Max Gust Speed 32 mph    
Visibility 9 miles    
Events      
T = Trace of Precipitation, MM = Missing Value Source: NWS Daily Summary

Daily Weather History Graph

Daily Weather History Graph

Search for Another Location

Airport or City:

Trip Planner

Search our weather history database for the weather conditions in past years. The results will help you decide how hot, cold, wet, or windy it might be!

Date:

Astronomy

Nov. 11, 2013 Rise Set
Actual Time 7:05 AM CST 5:20 PM CST
Civil Twilight 6:37 AM CST 5:48 PM CST
Nautical Twilight 6:05 AM CST 6:19 PM CST
Astronomical Twilight 5:34 AM CST 6:50 PM CST
Moon 1:56 PM CST (11/11) 12:58 AM CST (11/11)
Length of Visible Light 11h 10m
Length of Day
10h 15m
Waxing Gibbous, 66% of the Moon is Illuminated
Nov 11
Waxing Gibbous
Nov 17
Full
Nov 25
Last Quarter
Dec 2
New
Dec 9
First Quarter

Hourly Weather History & Observations

Time (CST) Temp. Windchill Dew Point Humidity Pressure Visibility Wind Dir Wind Speed Gust Speed Precip Events Conditions
12:43 AM 55.4 °F - 46.4 °F 72% 30.22 in 10.0 mi SSW 6.9 mph - N/A   Overcast
12:54 AM 55.0 °F - 46.9 °F 74% 30.21 in 10.0 mi SSW 8.1 mph - N/A   Overcast
1:50 AM 53.6 °F - 48.2 °F 82% 30.21 in 10.0 mi SSW 6.9 mph - N/A   Overcast
1:54 AM 54.0 °F - 48.0 °F 80% 30.20 in 10.0 mi SSW 6.9 mph - N/A   Overcast
2:54 AM 55.0 °F - 46.9 °F 74% 30.19 in 10.0 mi South 8.1 mph - N/A   Overcast
3:16 AM 55.4 °F - 46.4 °F 72% 30.19 in 10.0 mi South 8.1 mph - N/A   Overcast
3:54 AM 55.0 °F - 48.0 °F 77% 30.17 in 10.0 mi South 6.9 mph - N/A   Overcast
4:54 AM 54.0 °F - 48.0 °F 80% 30.16 in 10.0 mi South 5.8 mph - N/A   Overcast
5:03 AM 53.6 °F - 48.2 °F 82% 30.16 in 10.0 mi South 6.9 mph - N/A   Overcast
5:21 AM 53.6 °F - 48.2 °F 82% 30.17 in 10.0 mi South 3.5 mph - N/A   Overcast
5:54 AM 53.1 °F - 48.9 °F 86% 30.17 in 10.0 mi South 4.6 mph - N/A   Overcast
6:17 AM 53.6 °F - 48.2 °F 82% 30.17 in 10.0 mi South 4.6 mph - N/A   Overcast
6:54 AM 53.1 °F - 48.9 °F 86% 30.18 in 10.0 mi SSW 6.9 mph - N/A   Overcast
7:03 AM 51.8 °F - 48.2 °F 88% 30.18 in 10.0 mi SSW 5.8 mph - N/A   Overcast
7:12 AM 53.6 °F - 48.2 °F 82% 30.18 in 10.0 mi SSW 5.8 mph - N/A   Overcast
7:54 AM 53.1 °F - 50.0 °F 89% 30.19 in 9.0 mi SSW 6.9 mph - N/A   Overcast
8:54 AM 54.0 °F - 51.1 °F 90% 30.21 in 6.0 mi SW 6.9 mph - N/A   Mostly Cloudy
9:54 AM 57.0 °F - 52.0 °F 83% 30.21 in 8.0 mi SSW 4.6 mph - N/A   Overcast
10:01 AM 57.2 °F - 51.8 °F 82% 30.21 in 8.0 mi SSW 5.8 mph - N/A   Overcast
10:27 AM 55.4 °F - 51.8 °F 88% 30.21 in 9.0 mi WSW 6.9 mph - N/A   Overcast
10:54 AM 57.0 °F - 51.1 °F 81% 30.22 in 9.0 mi WSW 6.9 mph - N/A   Overcast
11:54 AM 57.0 °F - 51.1 °F 81% 30.22 in 10.0 mi NW 10.4 mph - N/A   Overcast
12:54 PM 57.0 °F - 50.0 °F 77% 30.22 in 10.0 mi NW 10.4 mph - N/A   Overcast
1:13 PM 55.4 °F - 51.8 °F 88% 30.21 in 9.0 mi WNW 9.2 mph - N/A   Overcast
1:54 PM 55.9 °F - 51.1 °F 84% 30.22 in 8.0 mi NNW 11.5 mph - N/A   Overcast
2:41 PM 55.4 °F - 50.0 °F 82% 30.23 in 10.0 mi North 18.4 mph 24.2 mph N/A   Overcast
2:49 PM 51.8 °F - 48.2 °F 88% 30.24 in 7.0 mi North 19.6 mph 26.5 mph N/A   Overcast
2:50 PM 51.1 °F - 48.0 °F 89% 30.24 in 7.0 mi North 18.4 mph 26.5 mph N/A   Overcast
2:59 PM 48.2 °F - 46.4 °F 93% 30.24 in 7.0 mi North 21.9 mph 26.5 mph N/A   Overcast
3:54 PM 44.1 °F 35.7 °F 41.0 °F 89% 30.30 in 9.0 mi North 20.7 mph 29.9 mph N/A   Overcast
4:54 PM 41.0 °F 31.4 °F 37.9 °F 89% 30.35 in 7.0 mi North 21.9 mph 31.1 mph N/A   Overcast
5:02 PM 41.0 °F 31.9 °F 37.4 °F 87% 30.34 in 7.0 mi NNE 19.6 mph 28.8 mph N/A   Overcast
5:11 PM 41.0 °F 32.8 °F 37.4 °F 87% 30.34 in 5.0 mi North 16.1 mph 24.2 mph N/A   Overcast
5:54 PM 39.0 °F 29.6 °F 37.0 °F 93% 30.39 in 5.0 mi North 18.4 mph 26.5 mph N/A   Overcast
6:52 PM 37.4 °F 27.2 °F 37.4 °F 100% 30.42 in 7.0 mi North 19.6 mph 29.9 mph 0.00 in   Overcast
6:54 PM 37.0 °F 27.4 °F 37.0 °F 100% 30.45 in 7.0 mi North 17.3 mph 29.9 mph 0.00 in   Overcast
7:13 PM 37.4 °F 25.9 °F 35.6 °F 93% 30.44 in 10.0 mi North 25.3 mph 32.2 mph N/A   Overcast
7:46 PM 35.6 °F 23.7 °F 33.8 °F 93% 30.46 in 10.0 mi North 24.2 mph 32.2 mph N/A   Overcast
7:54 PM 36.0 °F 25.3 °F 33.1 °F 89% 30.48 in 10.0 mi North 19.6 mph 29.9 mph N/A   Overcast
8:54 PM 36.0 °F 26.0 °F 28.9 °F 76% 30.52 in 10.0 mi North 17.3 mph 27.6 mph N/A   Overcast
9:06 PM 35.6 °F 25.5 °F 28.4 °F 75% 30.50 in 10.0 mi North 17.3 mph 23.0 mph N/A   Overcast
9:54 PM 32.0 °F 20.1 °F 26.1 °F 79% 30.57 in 10.0 mi North 19.6 mph 26.5 mph N/A   Overcast
11:54 PM 28.0 °F 14.9 °F 15.1 °F 58% 30.65 in 10.0 mi NNE 19.6 mph 32.2 mph N/A   Clear